This is the latest recevied weather packets stored in our database for station/object WB4ZUT. If no packets are shown the sender has not sent any weather packets the latest 10 day(s).
| Time | Temp. | Humidity | Pressure | Rain* | Wind** | Luminosity | Snow |
|---|---|---|---|---|---|---|---|
| 1778085404 | 13.33° C | 72% | 1015.3 hPa | 0 mm | - | 351 W/m² | - |
| 1778085099 | 13.33° C | 74% | 1015.4 hPa | 0 mm | - | 312 W/m² | - |
| 1778084796 | 12.78° C | 77% | 1015.4 hPa | 0 mm | - | 307 W/m² | - |
| 1778084493 | 13.33° C | 76% | 1015.5 hPa | 0 mm | - | 273 W/m² | - |
| 1778084191 | 12.78° C | 77% | 1015.2 hPa | 0 mm | - | 395 W/m² | - |
| 1778083887 | 12.78° C | 77% | 1015.2 hPa | 0 mm | - | 304 W/m² | - |
| 1778083585 | 12.78° C | 78% | 1015 hPa | 0 mm | - | 247 W/m² | - |
| 1778083281 | 12.78° C | 80% | 1014.9 hPa | 0 mm | - | 317 W/m² | - |
| 1778082981 | 12.78° C | 81% | 1015.2 hPa | 0 mm | - | 237 W/m² | - |
| 1778082677 | 12.22° C | 82% | 1014.9 hPa | 0 mm | - | 224 W/m² | - |
| 1778081539 | 12.22° C | 82% | 1015.3 hPa | 0 mm | - | 190 W/m² | - |
| 1778081235 | 12.22° C | 83% | 1015.2 hPa | 0 mm | - | 208 W/m² | - |
| 1778080933 | 12.22° C | 83% | 1015.2 hPa | 0 mm | - | 205 W/m² | - |
| 1778080632 | 12.22° C | 83% | 1014.8 hPa | 0 mm | - | 162 W/m² | - |
| 1778080328 | 12.22° C | 83% | 1014.9 hPa | 0 mm | - | 156 W/m² | - |
| 1778080024 | 12.78° C | 82% | 1015 hPa | 0 mm | - | 131 W/m² | - |
| 1778079722 | 12.78° C | 82% | 1015.1 hPa | 0 mm | - | 139 W/m² | - |
| 1778079419 | 12.78° C | 82% | 1014.8 hPa | 0 mm | - | 241 W/m² | - |
| 1778079115 | 12.78° C | 82% | 1014.5 hPa | 0 mm | - | 345 W/m² | - |
| 1778078813 | 12.78° C | 83% | 1014.3 hPa | 0 mm | - | 337 W/m² | - |
| 1778078509 | 12.78° C | 82% | 1014.6 hPa | 0 mm | - | 285 W/m² | - |
| 1778078207 | 13.33° C | 82% | 1014.1 hPa | 0 mm | - | 397 W/m² | - |
| 1778077905 | 12.78° C | 84% | 1014.2 hPa | 0 mm | - | 636 W/m² | - |
| 1778077603 | 12.78° C | 82% | 1014.2 hPa | 0 mm | - | 471 W/m² | - |
| 1778077301 | 12.78° C | 85% | 1014.2 hPa | 0 mm | - | 343 W/m² | - |
* Rain latest hour (hover to see other rain measurements)
** Current wind speed in m/s (hover to see current wind gust speed)